EHI
0 0 0 0 0 0 0 0 0 0 0 0 0 0 0 0 0 0 0 0 0 0 0 0 0 0 0 0 0 0 0 0 0 0 0 0 0 0 0 0 0 0 0
0 0 0 0 0 0 0 0 0 0 0 0 0 0 0 0 0 0 0 0 0 0 0 0 0 0 0 0 0 0 0 0 0 0 0 0 0 0 0 0 0 0 0
0 0 0 0 0 0 0 0 0 0 0 0 0 0 0 0 0 0 0 0 0 0 0 0 0 0 0 0 0 0 0 0 0 0 0 0 0 0 0 0 0 0 0
0 0 0 0 0 0 0 0 0 0 0 0 0 0 0 0 0 0 0 0 0 0 0 0 0 0 0 0 0 0 0 0 0 0 0 0 0 0 0 0 0 0 0
0 0 0 0 0 0 0 0 0 0 0 0 0 0 0 0 0 0 0 0 0 0 0 0 0 0 0 0 0 0 0 0 0 0 0 0 0 0 0 0 0 0 0
0 0 0 0 0 0 0 0 0 0 0 0 0 0 0 0 0 0 0 0 0 0 0 0 0 0 0 0 0 0 0 0 0 0 0 0 0 0 0 0 0 0 0
0 0 0 0 0 0 0 0 0 0 0 0 0 0 0 0 0 0 0 0 0 0 0 0 0 0 0 0 0 0 0 0 0 0 0 0 0 0 0 0 0 0 0
0 0 0 0 0 0 0 0 0 0 0 0 0 0 0 0 0 0 0 0 0 0 0 0 0 0 0 0 0 0 0 0 0 0 0 0 0 0 0 0 0 0 0
0 0 0 0 0 0 0 0 0 0 0 0 0 0 0 0 0 0 0 0 0 0 0 0 0 0 0 0 0 0 0 0 0 0 0 0 0 0 0 0 0 0 0
0 0 0 0 0 0 0 0 0 0 0 0 0 0 0 0 0 0 0 0 0 0 0 0 0 0 0 0 0 0 0 0 0 0 0 0 0 0 0 0 0 0 0
0 0 0 0 0 0 0 0 0 0 0 0 0 0 0 0 0 0 0 0 0 0 0 0 0 0 0 0 0 0 0 0 0 0 0 0 0 0 0 0 0 0 0
0 0 0 0 0 0 0 0 0 0 0 0 0 0 0 0 0 0 0 0 0 0 0 0 0 0 0 0 0 0 0 0 0 0 0 0 0 0 0 0 0 0 0
0 0 0 0 0 0 0 0 0 0 0 0 0 0 0 0 0 0 0 0 0 0 0 0 0 0 0 0 0 0 0 0 0 0 0 0 0 0 0 0 0 0 0
0 0 0 0 0 0 0 0 0 0 0 0 0 0 0 0 0 0 0 0 0 0 0 0 0 0 0 0 0 0 0 0 0 0 0 0 0 0 0 0 0 0 0
0 0 0 0 0 0 0 0 0 0 0 0 0 0 0 0 0 0 0 0 0 0 0 0 0 0 0 0 0 0 0 0 0 0 0 0 0 0 0 0 0 0 0
0 0 0 0 0 0 0 0 0 0 0 0 0 0 0 0 0 0 0 0 0 0 0 0 0 0 0 0 0 0 0 0 0 0 0 0 0 0 0 0 0 0 0
0 0 0 0 0 0 0 0 0 0 0 0 0 0 0 0 0 0 0 0 0 0 0 0 0 0 0 0 0 0 0 0 0 0 0 0 0 0 0 0 0 0 0
0 0 0 0 0 0 0 0 0 0 0 0 0 0 0 0 0 0 0 0 0 0 0 0 0 0 0 0 0 0 0 0 0 0 0 0 0 0 0 0 0 0 0
0 0 0 0 0 0 0 0 0 0 0 0 0 0 0 0 0 0 0 0 0 0 0 0 0 0 0 0 0 0 0 0 0 0 0 0 0 0 0 0 0 0 0
0 0 0 0 0 0 0 0 0 0 0 0 0 0 0 0 0 0 0 0 0 0 0 0 0 0 0 0 0 0 0 0 0 0 0 0 0 0 0 0 0 0 0
0 0 0 0 0 0 0 0 0 0 0 0 0 0 0 0 0 0 0 0 0 0 0 0 0 0 0 0 0 0 0 0 0 0 0 0 0 0 0 0 0 0 0
0 0 0 0 0 0 0 0 0 0 0 0 0 0 0 0 0 0 0 0 0 0 0 0 0 0 0 0 0 0 0 0 0 0 0 0 0 0 0 0 0 0 0
0 0 0 0 0 0 0 0 0 0 0 0 0 0 0 0 0 0 0 0 0 0 0 0 0 0 0 0 0 0 0 0 0 0 0 0 0 0 0 0 0 0 0
0 0 0 0 0 0 0 0 0 0 0 0 0 0 0 0 0 0 0 0 0 0 0 0 0 0 0 0 0 0 0 0 0 0 0 0 0 0 0 0 0 0 0
0 0 0 0 0 0 0 0 0 0 0 0 0 0 0 0 0 0 0 0 0 0 0 0 0 0 0 0 0 0 0 0 0 0 0 0 0 0 0 0 0 0 0
0 0 0 0 0 0 0 0 0 0 0 0 0 0 0 0 0 0 0 0 0 0 0 0 0 0 0 0 0 0 0 0 0 0 0 0 0 0 0 0 0 0 0
Wind_Speed
11 8 8 9 10 11 14 15 16 16 13 10 9 8 7 6 5 5 7 7 7 7 6 4 4 4 4 4 4 3 4 4 3 5 6 6 5 4 3 3 3 3 3
10 10 9 9 11 12 14 15 15 15 15 11 10 8 7 5 5 5 5 6 7 6 5 5 4 4 3 4 3 3 3 3 2 4 5 5 3 1 3 4 5 5 4
12 11 11 11 11 12 13 12 15 15 15 13 9 7 6 4 5 6 5 5 6 6 6 5 4 4 4 3 3 3 4 4 2 3 4 4 4 5 4 5 5 6 6
11 11 11 11 11 11 11 12 14 14 14 14 12 14 10 8 8 7 6 6 6 6 6 5 5 4 3 3 3 3 3 4 3 3 4 5 5 5 6 4 5 6 8
9 11 12 11 10 10 10 11 13 13 14 14 14 14 11 8 7 7 8 7 6 6 6 5 5 4 3 4 4 4 4 3 4 4 4 5 5 7 6 8 8 7 7
8 10 10 10 10 10 10 11 12 13 13 14 14 14 13 11 11 10 9 7 5 5 6 6 5 5 4 4 4 4 4 4 5 5 5 5 5 5 6 8 10 10 8
7 10 12 12 12 12 11 12 13 13 13 13 13 13 13 13 13 11 10 8 6 6 7 6 5 5 4 4 4 4 4 5 6 6 5 5 6 6 7 8 9 11 9
7 10 12 12 12 13 13 13 13 13 13 13 12 11 11 9 8 10 9 8 6 6 7 7 6 5 5 4 4 4 5 5 6 6 7 6 6 6 6 7 8 9 9
7 9 11 12 12 13 13 13 14 13 13 13 12 11 11 10 9 9 8 7 6 6 8 7 6 5 5 5 5 4 5 5 6 6 7 7 6 6 6 7 7 7 9
5 9 10 12 11 12 12 12 13 13 13 12 11 9 10 10 9 9 9 8 8 7 8 7 6 6 5 5 5 5 5 6 6 6 8 8 6 6 6 7 7 8 10
5 8 9 11 11 11 11 12 12 12 12 12 12 11 10 10 10 9 9 9 8 8 8 7 6 6 6 6 6 6 7 8 8 8 9 9 9 7 7 7 8 9 9
4 7 9 10 11 12 12 13 13 13 13 12 12 11 11 10 10 10 10 9 9 8 8 7 7 7 7 7 7 7 8 8 9 9 9 10 8 10 9 8 10 10 10
4 6 8 10 12 12 13 13 13 13 12 12 12 12 11 11 11 10 9 9 8 8 7 7 7 7 7 7 8 8 8 9 10 10 10 11 11 12 10 10 10 10 10
5 6 8 10 11 12 13 13 13 13 12 13 13 13 13 12 11 10 9 9 8 8 8 8 7 7 7 7 8 8 9 10 10 11 11 12 12 13 12 11 12 11 11
6 7 8 9 10 12 12 13 13 13 13 13 13 13 12 11 10 10 9 8 8 8 8 7 7 7 7 7 7 8 9 10 11 11 12 12 14 16 14 11 11 11 11
8 7 8 9 11 12 12 12 13 13 13 13 13 11 11 10 10 10 9 9 8 8 8 8 8 8 7 9 12 11 10 11 12 12 12 13 14 16 20 21 21 19 15
7 7 8 9 9 10 11 12 12 12 12 12 11 11 11 11 10 9 9 9 9 8 8 8 9 9 9 11 14 15 12 12 13 13 12 11 11 15 13 16 19 20 22
7 6 6 6 7 8 9 9 10 11 11 11 11 11 11 10 10 10 10 9 8 8 8 8 9 9 10 12 14 15 14 13 14 13 14 14 14 13 13 12 13 15 16
5 4 3 4 5 7 8 9 9 9 10 10 10 10 10 10 10 10 10 8 8 8 8 8 9 10 10 12 14 14 11 11 13 13 13 14 15 17 19 16 15 16 14
2 2 3 4 5 6 8 9 9 9 10 10 9 9 9 9 9 9 8 7 7 7 7 8 9 10 11 11 13 14 9 11 11 11 12 15 17 19 20 16 15 15 14
3 4 4 4 5 6 8 8 8 8 7 7 7 7 8 8 8 7 7 6 6 7 8 9 9 10 11 12 14 15 10 10 11 10 10 10 17 19 21 20 15 17 18
4 5 5 5 4 5 6 7 6 5 5 6 6 6 7 6 5 6 6 6 6 7 8 8 9 8 9 11 12 16 16 15 13 12 11 11 17 20 22 18 19 23 20
4 4 5 5 4 4 5 5 4 5 5 6 6 5 5 5 5 6 6 6 6 6 6 7 8 8 7 8 14 16 18 18 14 12 17 20 22 22 18 19 21 18 11
5 5 5 5 4 4 3 4 4 5 5 5 4 4 4 5 5 5 5 5 6 6 7 7 8 8 8 8 7 8 9 13 13 12 15 20 21 18 17 16 13 10 9
4 4 5 5 5 4 4 4 4 5 4 4 3 3 4 4 5 5 6 7 7 7 8 8 8 9 10 10 12 11 9 9 10 12 10 10 10 9 9 9 9 8 8
5 5 5 5 4 4 4 4 4 4 4 3 3 3 3 4 4 5 6 8 11 13 15 16 15 12 16 18 19 20 21 22 22 16 11 11 11 10 9 9 8 8 8
Wind_Direction
231 211 206 201 195 193 192 188 186 187 184 182 183 183 185 180 180 182 184 188 187 189 194 199 206 211 228 238 247 259 267 274 298 295 296 288 277 286 279 275 283 284 289
221 205 199 192 192 189 188 185 184 184 184 185 184 184 177 174 169 167 180 183 185 185 189 198 201 206 220 226 232 248 272 279 286 299 307 307 282 221 267 284 286 288 285
222 204 194 190 187 186 185 183 182 183 185 181 172 156 150 151 167 172 172 176 179 179 181 190 193 195 211 223 227 237 256 271 263 274 293 302 309 321 281 276 281 283 287
222 204 193 187 184 181 179 181 180 181 182 179 180 178 181 181 183 174 167 166 173 171 172 177 184 190 203 210 213 225 243 258 265 256 254 269 290 292 301 282 276 285 291
219 203 193 186 178 171 173 176 176 179 180 184 186 186 187 180 167 163 164 165 166 170 172 176 181 186 195 203 205 216 231 246 261 265 263 261 262 258 271 289 296 291 283
213 200 186 176 170 167 169 171 173 177 179 184 186 189 183 172 166 170 170 170 166 170 174 177 182 188 193 200 211 223 234 246 254 260 260 262 263 265 265 278 291 295 296
204 191 181 178 173 172 172 174 175 176 179 183 186 188 184 180 179 177 179 175 174 178 179 181 188 191 194 202 213 226 239 244 251 256 260 261 263 272 272 276 286 291 294
201 193 188 184 178 176 177 178 179 178 180 183 184 185 182 182 181 181 179 182 183 180 177 183 191 195 197 205 217 231 238 246 249 256 259 260 262 261 260 267 283 290 288
200 195 189 189 184 182 183 183 181 179 181 183 181 182 180 179 176 175 178 179 176 168 177 184 191 196 203 213 223 236 241 247 252 256 258 259 260 259 259 260 260 269 285
198 195 193 192 190 187 185 186 187 183 181 181 181 180 180 178 174 173 176 176 173 171 178 188 195 200 208 217 227 241 247 252 255 257 261 262 262 262 259 257 258 256 264
207 200 196 193 190 187 186 188 188 185 183 183 181 180 178 176 176 178 178 176 176 179 186 192 199 207 216 225 233 241 248 253 258 256 259 263 265 265 263 261 259 259 260
212 203 198 192 191 191 191 191 190 189 187 184 183 182 177 176 180 181 179 179 182 187 192 196 206 214 223 230 239 246 249 255 260 262 263 265 265 264 265 263 263 263 264
215 202 198 198 198 197 196 195 195 193 187 183 184 182 181 183 186 184 180 183 187 191 195 203 213 220 227 234 242 249 254 258 261 264 264 266 267 267 266 266 267 268 269
230 214 208 205 204 202 200 198 197 193 188 186 188 189 188 189 188 184 183 187 192 196 202 210 218 225 231 237 243 250 257 261 262 262 262 263 263 266 269 270 270 271 273
238 223 219 213 206 203 202 200 198 193 188 190 193 194 190 187 186 186 188 190 196 202 206 214 223 228 232 235 237 247 255 260 263 262 261 260 260 264 266 267 269 270 270
248 232 223 218 211 205 202 198 197 191 189 193 195 190 187 186 188 190 190 192 200 206 210 220 228 234 236 238 245 255 261 262 263 265 265 265 262 262 264 266 267 268 270
256 237 225 218 213 207 200 198 194 186 190 194 192 188 188 190 192 190 193 199 205 210 218 227 234 242 245 244 253 257 265 267 267 268 269 268 266 268 267 269 271 270 268
252 242 227 217 210 201 194 189 183 183 187 192 192 190 190 192 192 195 201 206 210 216 225 232 239 248 251 250 258 264 265 267 267 267 268 270 271 270 270 271 270 269 268
249 240 222 205 190 184 178 173 175 179 186 193 194 191 191 192 194 201 207 210 215 223 231 238 244 251 257 254 260 266 269 267 268 268 267 268 270 272 274 274 273 273 272
208 186 165 163 167 166 165 168 174 181 191 194 194 190 192 195 201 206 210 213 219 230 237 244 249 255 262 260 261 264 266 269 272 272 269 265 267 272 275 273 274 275 277
142 141 142 145 149 154 162 170 176 189 189 184 185 188 193 200 205 208 212 216 223 234 243 251 255 257 261 264 262 263 264 267 273 273 272 270 272 274 275 275 273 274 280
136 138 135 128 131 150 164 170 179 173 166 172 180 188 196 197 203 210 216 222 228 240 249 257 263 261 260 258 261 263 264 270 274 275 275 274 276 277 278 277 275 279 283
138 138 134 127 130 151 167 168 158 153 162 172 183 189 195 200 207 215 221 228 233 242 252 258 264 267 265 262 262 267 270 272 272 274 277 281 283 284 281 277 278 280 278
146 142 142 139 138 145 156 152 147 157 166 177 184 190 202 212 218 221 225 231 236 245 252 259 265 270 270 269 268 268 273 274 273 276 280 282 282 278 276 278 278 271 267
146 149 151 146 143 145 147 143 150 161 172 182 192 204 216 225 232 235 237 241 243 245 251 259 264 270 272 271 275 279 278 277 276 283 279 277 277 273 269 268 267 264 263
148 148 148 146 145 148 148 148 158 170 178 193 208 219 229 238 245 253 259 244 248 257 258 262 265 269 270 279 281 282 282 284 285 284 277 276 275 275 277 276 272 267 264